{"data":{"norad_id":58967,"epoch":"2026-09-20T22:15:56.197728Z","epoch_age_seconds":118714,"freshness":"FRESH","line1":"1 58967U 24031C   26263.92773377 -.00000055  00000+0  95004-5 0  9992","line2":"2 58967  53.1604 107.8023 0001394  78.1777 281.9382 15.34388155146457","mean_motion":15.34388155,"eccentricity":0.0001394,"inclination_deg":53.1604,"raan_deg":107.8023,"arg_perigee_deg":78.1777,"mean_anomaly_deg":281.9382,"bstar":9.5004e-6,"rev_number":14645,"period_min":93.848482556879,"perigee_km":461.7848282326,"apogee_km":463.69206430702,"semimajor_km":6840.8754462698,"source":"CELESTRAK","updated_at":"2026-09-21T09:00:34.018735Z"}}